Weather History for Anapa, Russia

Change the Weather History Date:

Sunday, February 10, 2013

  Actual Average Record
Temperature  
Mean Temperature 48 °F -  
Max Temperature 57 °F - - ()
Min Temperature 39 °F - - ()
Degree Days  
Heating Degree Days 17    
Moisture  
Dew Point 39 °F    
Average Humidity 66    
Maximum Humidity 93    
Minimum Humidity 42    
Precipitation  
Precipitation 0.00 in - - ()
Sea Level Pressure  
Sea Level Pressure 30.02 in    
Wind  
Wind Speed 5 mph ()    
Max Wind Speed 9 mph    
Max Gust Speed -    
Visibility 8.3 miles    
Events      
T = Trace of Precipitation, MM = Missing Value Source: Averaged Metar Reports

Daily Weather History Graph

Daily Weather History Graph

Search for Another Location

Airport:

Trip Planner

Search our weather history database for the weather conditions in past years. The results will help you decide how hot, cold, wet, or windy it might be!

Date:

Astronomy

Feb. 10, 2013 Rise Set
Actual Time 8:38 AM MSK 6:51 PM MSK
Civil Twilight 8:08 AM MSK 7:21 PM MSK
Nautical Twilight 7:33 AM MSK 7:56 PM MSK
Astronomical Twilight 6:59 AM MSK 8:30 PM MSK
Moon 8:13 AM MSK (2/10) 7:21 PM MSK (2/10)
Length of Visible Light 11h 13m
Length of Day
10h 12m
Waxing Crescent, 0% of the Moon is Illuminated
Feb 10
Waxing Crescent
Feb 18
First Quarter
Feb 26
Full
Mar 5
Last Quarter
Mar 11
New

Hourly Weather History & Observations

Time (MSK) Temp. Windchill Dew Point Humidity Pressure Visibility Wind Dir Wind Speed Gust Speed Precip Events Conditions
12:00 AM 44.6 °F 39.8 °F 41.0 °F 87% 30.06 in - SSE 8.9 mph - N/A   Clear
1:00 AM 48 °F - 44 °F 79% 30.09 in 6 mi SE 2.2 mph - -   Clear
1:00 AM 44.6 °F 39.8 °F 41.0 °F 87% 30.06 in - SSE 8.9 mph - N/A   Clear
2:00 AM 41.0 °F 36.5 °F 37.4 °F 87% 30.09 in - SE 6.7 mph - N/A   Clear
3:00 AM 41.0 °F 38.1 °F 37.4 °F 87% 30.09 in - SE 4.5 mph - N/A   Clear
4:00 AM 44 °F - 40 °F 83% 30.09 in 6 mi ENE 4.5 mph - -  
4:00 AM 41.0 °F 36.5 °F 39.2 °F 93% 30.06 in - SE 6.7 mph - N/A   Clear
5:00 AM 42.8 °F 38.7 °F 39.2 °F 87% 30.06 in - East 6.7 mph - N/A   Clear
6:00 AM 41.0 °F 38.1 °F 37.4 °F 87% 30.06 in - ENE 4.5 mph - N/A   Clear
7:00 AM 44 °F - 39 °F 76% 30.05 in 6 mi ENE 6.7 mph - -  
7:00 AM 41.0 °F 35.4 °F 35.6 °F 81% 30.04 in - ENE 8.9 mph - N/A   Clear
8:00 AM 42.8 °F 40.2 °F 35.6 °F 76% 30.04 in - South 4.5 mph - N/A   Clear
8:30 AM 42.8 °F 38.7 °F 35.6 °F 76% 30.04 in - ENE 6.7 mph - N/A   Clear
9:00 AM 39.2 °F 36.0 °F 33.8 °F 81% 30.06 in - South 4.5 mph - N/A   Clear
9:30 AM 41.0 °F 38.1 °F 35.6 °F 81% 30.06 in - East 4.5 mph - N/A   Clear
10:00 AM 46 °F - 38 °F 64% 30.06 in 12 mi NE 2.2 mph - -   Clear
10:00 AM 48.2 °F - 37.4 °F 66% 30.04 in - Variable 2.2 mph - N/A   Clear
10:30 AM 50.0 °F - 41.0 °F 71% 30.04 in - Variable 2.2 mph - N/A   Clear
11:00 AM 51.8 °F - 41.0 °F 67% 30.04 in - Variable 2.2 mph - N/A   Clear
11:30 AM 55.4 °F - 37.4 °F 51% 30.04 in - Variable 2.2 mph - N/A   Clear
12:00 PM 59.0 °F - 35.6 °F 42% 30.04 in - SE 4.5 mph - N/A   Clear
12:30 PM 59.0 °F - 39.2 °F 48% 30.04 in - SSW 8.9 mph - N/A   Clear
1:00 PM 56 °F - 40 °F 45% 30.04 in 12 mi West 2.2 mph - -   Clear
1:00 PM 59.0 °F - 41.0 °F 51% 30.04 in - WSW 8.9 mph - N/A   Clear
1:30 PM 59.0 °F - 41.0 °F 51% 30.01 in - SW 6.7 mph - N/A   Clear
2:00 PM 59.0 °F - 41.0 °F 51% 30.01 in - SW 6.7 mph - N/A   Clear
2:30 PM 60.8 °F - 41.0 °F 48% 30.01 in - WSW 4.5 mph - N/A   Clear
3:00 PM 60.8 °F - 41.0 °F 48% 29.98 in - NW 4.5 mph - N/A   Clear
3:30 PM 60.8 °F - 41.0 °F 48% 29.98 in - NNW 6.7 mph - N/A   Clear
4:00 PM 57 °F - 40 °F 42% 29.99 in 12 mi WSW 2.2 mph - -   Clear
4:00 PM 62.6 °F - 41.0 °F 45% 29.98 in - WNW 4.5 mph - N/A   Clear
4:30 PM 60.8 °F - 41.0 °F 48% 29.98 in - West 4.5 mph - N/A   Clear
5:00 PM 62.6 °F - 41.0 °F 45% 29.98 in - WNW 4.5 mph - N/A   Clear
5:30 PM 59.0 °F - 41.0 °F 51% 29.98 in - WNW 4.5 mph - N/A   Clear
6:00 PM 57.2 °F - 39.2 °F 51% 29.95 in - WSW 4.5 mph - N/A   Clear
6:30 PM 55.4 °F - 39.2 °F 54% 29.95 in - SW 2.2 mph - N/A   Clear
7:00 PM 54 °F - 40 °F 49% 29.96 in 6 mi NW 2.2 mph - -   Clear
7:00 PM 51.8 °F - 39.2 °F 62% 29.95 in - WSW 2.2 mph - N/A   Clear
7:30 PM 46.4 °F - 37.4 °F 71% 29.95 in - NNE 2.2 mph - N/A   Clear
8:00 PM 44.6 °F - 35.6 °F 71% 29.95 in - ENE 2.2 mph - N/A   Clear
9:00 PM 44.6 °F - 39.2 °F 81% 29.95 in - NE 2.2 mph - N/A   Clear
10:00 PM 49 °F - 40 °F 61% 29.94 in 6 mi SSE 2.2 mph - -   Clear
10:00 PM 46.4 °F 43.0 °F 39.2 °F 76% 29.92 in - ENE 6.7 mph - N/A   Clear
11:00 PM 42.8 °F 40.2 °F 37.4 °F 81% 29.92 in - East 4.5 mph - N/A   Clear